Location: Buenos Aires
(34.6076°S, 58.4371°W)
Time: 11:34:42
(UTC-03:00)

Envisat - Visible Passes

Search period start: 30 November 2021 00:00
Search period end: 10 December 2021 00:00
Orbit: 764 x 766 km, 98.2° (Epoch: 29 November)

Date Brightness Start Highest point End Pass type
(mag) Time Alt. Az. Time Alt. Az. Time Alt. Az.
30 Nov 6.0 03:49:17 10° E 03:51:51 14° ESE 03:54:26 10° SE visible
01 Dec 3.8 04:48:30 10° NNE 04:53:29 56° ESE 04:58:30 10° S visible
02 Dec 5.5 04:12:47 10° ENE 04:16:52 25° ESE 04:20:58 10° SSE visible
03 Dec 6.3 03:39:22 10° ESE 03:40:28 11° ESE 03:41:33 10° SE visible
04 Dec 4.4 04:37:10 10° NE 04:41:58 43° ESE 04:46:50 10° S visible
05 Dec 5.8 04:01:52 10° ENE 04:05:26 19° ESE 04:09:00 10° SSE visible
06 Dec 3.2 05:02:05 10° NNE 05:07:11 80° ESE 05:12:20 10° S visible
07 Dec 4.9 04:25:57 10° NE 04:30:29 34° ESE 04:35:05 10° S visible
08 Dec 6.0 03:51:09 10° E 03:54:00 15° ESE 03:56:52 10° SSE visible
09 Dec 3.7 04:50:38 10° NNE 04:55:39 61° ESE 05:00:44 10° S visible
